Terug naar catalogus

JO-97

JY1SAT

ActiefAmateurradioSSO
NORAD 43803·PAYLOAD·🇯🇴 Jordan

Gelanceerd Dec 3, 2018 vanaf Vandenberg Space Force Base

Loading…

Volgende Passages (komende 24 uur)

TLE

VersSource: AMSAT

Epoch: Sep 14, 2026, 09:42 UTC

1 43803U 18099AX  26257.40456493  .00013172  00000-0  37443-3 0  9990
2 43803  97.4033 320.6747 0004078 322.4190  37.6768 15.36281570427317

Volg JO-97 in realtime met AllMySat

Download on the App Store